GFSCGP_prec_pwat_024.txt.gz
Precipitable_Water
0.27 0.20 0.19 0.27 0.37 0.38 0.38 0.45 0.44 0.60 0.81 0.71 0.70 0.75 0.90 0.94 0.89 0.69 0.78 0.77 0.82 0.85 0.93 1.05 1.09 1.16 1.20 1.27 1.29 1.27 1.29 1.34 1.53 1.48 1.44 1.47 1.52 1.55 1.54 1.70 1.76 1.79 1.70 1.71
0.20 0.16 0.17 0.25 0.34 0.39 0.38 0.44 0.51 0.60 0.75 0.78 0.67 0.72 0.79 1.04 0.81 0.76 0.70 0.73 0.75 0.80 0.89 0.96 1.05 1.12 1.16 1.17 1.21 1.25 1.23 1.32 1.31 1.39 1.40 1.42 1.42 1.46 1.46 1.53 1.56 1.62 1.60 1.58
0.16 0.17 0.17 0.18 0.25 0.34 0.37 0.40 0.51 0.59 0.68 0.69 0.64 0.58 0.60 0.84 0.91 0.87 0.85 0.80 0.78 0.73 0.76 0.92 0.99 1.06 1.14 1.12 1.16 1.20 1.25 1.29 1.30 1.37 1.39 1.39 1.60 1.54 1.53 1.53 1.62 1.49 1.51 1.46
0.20 0.20 0.18 0.15 0.18 0.30 0.31 0.41 0.48 0.57 0.62 0.51 0.72 0.49 0.61 0.85 0.88 0.83 0.72 0.81 0.82 0.78 0.82 0.89 1.04 1.12 1.10 1.14 1.23 1.29 1.32 1.31 1.36 1.32 1.47 1.24 1.22 1.22 1.19 1.28 1.37 1.47 1.42 1.26
0.20 0.18 0.16 0.14 0.15 0.26 0.30 0.41 0.43 0.47 0.54 0.63 0.71 0.63 0.69 0.76 0.85 0.84 0.83 0.73 0.81 0.89 0.90 0.92 1.01 1.13 1.20 1.25 1.28 1.35 1.38 1.40 1.37 1.35 1.37 1.42 1.35 1.22 1.37 1.33 1.30 1.34 1.26 1.17
0.23 0.25 0.18 0.17 0.17 0.22 0.31 0.36 0.38 0.42 0.46 0.48 0.64 0.62 0.57 0.65 0.73 0.89 0.88 0.89 0.87 0.93 0.96 0.98 1.05 1.17 1.24 1.31 1.37 1.39 1.42 1.38 1.40 1.40 1.33 1.36 1.39 1.23 1.27 1.30 1.18 1.16 1.17 1.19
0.23 0.21 0.23 0.19 0.17 0.18 0.21 0.26 0.27 0.28 0.33 0.35 0.56 0.64 0.60 0.79 0.83 0.82 0.93 1.02 0.99 0.95 0.93 0.98 1.00 1.07 1.21 1.28 1.33 1.44 1.47 1.38 1.40 1.37 1.41 1.29 1.33 1.37 1.30 1.30 1.21 1.17 1.11 1.26
0.23 0.19 0.21 0.23 0.18 0.16 0.16 0.21 0.23 0.23 0.28 0.35 0.40 0.38 0.54 0.78 0.87 0.98 1.03 1.03 1.01 1.02 1.05 1.06 1.03 1.05 1.14 1.22 1.32 1.36 1.40 1.36 1.40 1.35 1.34 1.37 1.25 1.39 1.33 1.39 1.43 1.35 1.38 1.48
0.23 0.23 0.30 0.25 0.21 0.18 0.16 0.17 0.23 0.25 0.35 0.34 0.38 0.46 0.47 0.73 0.80 0.91 0.92 0.92 0.88 1.01 1.03 1.05 1.04 1.07 1.10 1.20 1.26 1.29 1.33 1.33 1.32 1.34 1.31 1.34 1.32 1.26 1.31 1.38 1.47 1.54 1.41 1.57
0.27 0.25 0.31 0.31 0.28 0.21 0.16 0.20 0.17 0.22 0.23 0.26 0.32 0.38 0.47 0.57 0.68 0.98 0.86 0.84 0.78 0.87 0.95 1.08 1.06 1.02 1.09 1.20 1.28 1.33 1.30 1.33 1.32 1.32 1.31 1.30 1.33 1.28 1.31 1.39 1.39 1.44 1.57 1.46
0.28 0.28 0.29 0.36 0.28 0.22 0.19 0.15 0.18 0.21 0.23 0.24 0.28 0.34 0.48 0.56 0.71 0.77 0.76 0.78 0.81 0.68 0.79 1.03 1.06 1.01 1.00 1.14 1.25 1.29 1.25 1.34 1.33 1.32 1.30 1.26 1.27 1.33 1.37 1.39 1.42 1.47 1.46 1.43
0.32 0.28 0.27 0.30 0.36 0.33 0.25 0.17 0.15 0.16 0.18 0.23 0.30 0.32 0.52 0.60 0.69 0.74 0.71 0.73 0.71 0.60 0.65 0.79 1.06 1.05 0.97 1.01 1.14 1.22 1.24 1.24 1.30 1.30 1.24 1.20 1.26 1.32 1.36 1.31 1.46 1.47 1.42 1.46
0.36 0.29 0.26 0.28 0.32 0.36 0.27 0.24 0.22 0.17 0.20 0.25 0.25 0.29 0.47 0.60 0.69 0.80 0.75 0.68 0.63 0.62 0.70 0.76 0.96 1.10 1.10 1.03 1.05 1.14 1.25 1.18 1.29 1.30 1.17 1.18 1.22 1.28 1.30 1.35 1.32 1.45 1.45 1.40
0.41 0.34 0.28 0.24 0.28 0.36 0.33 0.29 0.27 0.22 0.16 0.18 0.28 0.34 0.40 0.56 0.58 0.68 0.68 0.67 0.67 0.63 0.69 0.74 0.90 1.09 1.13 1.13 1.02 1.08 1.18 1.27 1.24 1.28 1.20 1.11 1.21 1.23 1.28 1.37 1.38 1.36 1.49 1.47
0.41 0.34 0.34 0.32 0.36 0.42 0.37 0.35 0.30 0.26 0.21 0.18 0.19 0.30 0.39 0.47 0.60 0.64 0.69 0.68 0.65 0.63 0.66 0.72 0.70 0.73 1.14 1.14 1.01 1.08 1.21 1.27 1.30 1.29 1.28 1.23 1.31 1.41 1.47 1.45 1.49 1.50 1.56 1.57
0.42 0.36 0.40 0.34 0.37 0.39 0.41 0.36 0.32 0.28 0.26 0.21 0.22 0.23 0.34 0.48 0.55 0.62 0.73 0.72 0.67 0.63 0.64 0.74 0.72 0.64 0.68 1.13 1.04 1.06 1.21 1.25 1.30 1.27 1.28 1.36 1.45 1.53 1.53 1.54 1.57 1.64 1.67 1.70
0.39 0.38 0.40 0.36 0.41 0.39 0.36 0.41 0.41 0.33 0.27 0.24 0.21 0.23 0.31 0.35 0.42 0.49 0.65 0.68 0.71 0.67 0.60 0.58 0.78 0.76 0.76 0.88 1.09 1.15 1.22 1.35 1.32 1.32 1.34 1.37 1.42 1.47 1.56 1.66 1.70 1.73 1.74 1.77
0.42 0.39 0.41 0.39 0.44 0.35 0.40 0.45 0.43 0.41 0.40 0.35 0.32 0.30 0.27 0.30 0.37 0.41 0.48 0.56 0.70 0.74 0.64 0.63 0.60 0.76 0.89 0.92 1.12 1.31 1.38 1.38 1.38 1.36 1.41 1.44 1.47 1.48 1.58 1.66 1.72 1.73 1.69 1.61
0.45 0.40 0.36 0.39 0.39 0.39 0.44 0.46 0.46 0.40 0.38 0.44 0.43 0.44 0.43 0.42 0.38 0.37 0.45 0.47 0.48 0.65 0.76 0.71 0.66 0.61 0.87 0.97 1.09 1.22 1.41 1.37 1.37 1.34 1.41 1.48 1.55 1.59 1.62 1.65 1.66 1.59 1.60 1.64
0.44 0.52 0.44 0.41 0.39 0.33 0.43 0.51 0.65 0.65 0.46 0.63 0.65 0.57 0.54 0.60 0.49 0.47 0.42 0.46 0.46 0.48 0.58 0.64 0.63 0.58 0.60 0.85 1.15 1.11 1.26 1.39 1.34 1.36 1.39 1.58 1.70 1.68 1.65 1.65 1.57 1.62 1.63 1.59
0.42 0.45 0.43 0.45 0.41 0.45 0.62 0.74 0.78 0.52 0.50 0.81 0.79 0.73 0.64 0.58 0.61 0.68 0.71 0.67 0.43 0.47 0.46 0.50 0.60 0.64 0.93 1.15 1.19 1.15 1.22 1.32 1.46 1.57 1.58 1.62 1.69 1.74 1.71 1.55 1.56 1.53 1.50 1.53
0.45 0.46 0.48 0.52 0.45 0.42 0.71 0.76 0.65 0.81 0.92 0.88 0.84 0.81 0.72 0.67 0.64 0.62 0.63 0.61 0.68 0.60 0.56 0.63 0.76 0.91 1.26 1.41 1.33 1.20 1.26 1.53 1.62 1.61 1.58 1.65 1.70 1.61 1.54 1.53 1.49 1.50 1.52 1.53
0.43 0.47 0.50 0.55 0.58 0.82 1.01 0.97 1.01 1.01 0.99 0.88 0.86 0.82 0.76 0.67 0.64 0.67 0.78 0.85 0.89 0.89 0.94 0.96 0.98 1.12 1.26 1.48 1.34 1.32 1.50 1.70 1.69 1.62 1.59 1.60 1.52 1.55 1.59 1.48 1.45 1.51 1.56 1.49
0.52 0.55 0.42 0.51 0.70 0.85 0.94 0.96 0.98 1.07 1.00 1.08 1.05 0.98 0.93 0.81 1.03 1.06 1.04 1.00 1.09 1.10 1.08 1.24 1.20 1.15 1.24 1.43 1.49 1.56 1.64 1.76 1.71 1.62 1.52 1.51 1.50 1.49 1.51 1.51 1.59 1.51 1.49 1.46
0.82 0.82 0.58 0.47 0.77 0.94 0.95 1.00 1.01 1.05 1.09 1.06 1.02 1.01 0.91 1.09 1.21 1.23 1.21 1.19 1.20 1.28 1.29 1.34 1.33 1.30 1.43 1.57 1.61 1.72 1.76 1.83 1.67 1.57 1.49 1.44 1.43 1.44 1.43 1.47 1.50 1.51 1.52 1.51
0.87 0.86 0.73 0.65 1.05 0.97 0.94 1.02 1.07 0.94 0.89 0.97 0.97 0.88 1.01 1.07 1.22 1.38 1.36 1.32 1.28 1.24 1.31 1.31 1.30 1.38 1.58 1.70 1.76 1.88 1.85 1.63 1.45 1.38 1.40 1.38 1.40 1.39 1.40 1.39 1.42 1.51 1.50 1.46

GFSCGP_prec_pwat_030.txt.gz
Precipitable_Water
0.25 0.21 0.18 0.24 0.33 0.37 0.42 0.42 0.41 0.45 0.51 0.64 0.62 0.70 0.82 0.99 1.00 0.95 0.86 0.85 0.84 0.65 0.82 0.98 1.11 1.21 1.28 1.29 1.29 1.26 1.23 1.32 1.35 1.37 1.34 1.28 1.27 1.36 1.45 1.54 1.63 1.63 1.60 1.67
0.20 0.15 0.21 0.26 0.29 0.31 0.39 0.38 0.38 0.43 0.45 0.48 0.66 0.69 0.82 0.92 0.90 0.88 0.88 0.85 0.82 0.84 0.75 0.87 1.02 1.13 1.17 1.16 1.21 1.22 1.22 1.28 1.34 1.35 1.34 1.39 1.36 1.31 1.38 1.50 1.56 1.54 1.56 1.62
0.13 0.15 0.20 0.21 0.24 0.25 0.31 0.34 0.37 0.38 0.43 0.67 0.66 0.67 0.78 0.87 0.94 0.94 0.94 0.93 0.86 0.84 0.75 0.76 0.88 0.97 1.04 1.06 1.11 1.14 1.19 1.25 1.30 1.34 1.35 1.42 1.41 1.32 1.31 1.36 1.37 1.39 1.56 1.53
0.15 0.19 0.20 0.17 0.18 0.25 0.21 0.37 0.40 0.39 0.40 0.43 0.69 0.52 0.72 0.79 0.80 0.83 0.90 0.94 0.91 0.91 0.87 0.83 0.83 0.85 0.95 0.98 1.11 1.16 1.20 1.24 1.28 1.32 1.25 1.21 1.15 1.05 1.14 1.27 1.35 1.36 1.47 1.45
0.17 0.19 0.18 0.18 0.17 0.21 0.18 0.31 0.41 0.40 0.37 0.39 0.55 0.55 0.62 0.77 0.70 0.76 0.84 0.88 0.93 0.90 0.88 0.80 0.85 0.92 0.94 1.02 1.06 1.10 1.13 1.22 1.26 1.28 1.25 1.18 1.13 1.13 1.12 1.35 1.32 1.35 1.37 1.36
0.24 0.29 0.26 0.20 0.22 0.22 0.20 0.23 0.34 0.39 0.37 0.30 0.37 0.43 0.55 0.58 0.71 0.77 0.88 0.91 0.92 1.00 0.94 0.89 0.88 1.07 1.12 1.16 1.20 1.22 1.21 1.19 1.24 1.27 1.26 1.17 1.08 1.07 1.04 1.20 1.16 1.28 1.21 1.26
0.26 0.24 0.26 0.27 0.22 0.23 0.21 0.15 0.15 0.22 0.26 0.24 0.37 0.41 0.45 0.61 0.76 0.79 0.86 0.90 0.94 1.03 1.05 0.94 0.96 1.04 1.14 1.14 1.18 1.23 1.26 1.24 1.25 1.24 1.22 1.20 1.10 1.06 1.08 1.15 1.18 1.10 1.12 1.25
0.22 0.18 0.22 0.24 0.24 0.20 0.19 0.16 0.10 0.13 0.19 0.25 0.35 0.32 0.37 0.61 0.67 0.79 0.91 0.96 1.01 1.06 1.07 1.05 1.01 1.04 1.07 1.14 1.20 1.25 1.29 1.31 1.35 1.25 1.24 1.24 1.19 1.06 1.18 1.18 1.18 1.13 1.14 1.31
0.22 0.20 0.28 0.25 0.24 0.23 0.19 0.16 0.18 0.13 0.19 0.22 0.28 0.36 0.42 0.54 0.62 0.71 0.86 0.95 0.97 1.03 1.07 1.10 1.13 1.17 1.08 1.11 1.18 1.23 1.29 1.30 1.37 1.29 1.25 1.23 1.20 1.10 1.16 1.21 1.23 1.26 1.35 1.39
0.26 0.19 0.26 0.26 0.26 0.25 0.22 0.22 0.15 0.14 0.09 0.12 0.17 0.23 0.27 0.34 0.49 0.64 0.76 0.82 0.91 1.00 1.02 1.06 1.15 1.20 1.21 1.13 1.15 1.28 1.32 1.27 1.31 1.37 1.25 1.18 1.11 1.10 1.18 1.27 1.24 1.33 1.37 1.40
0.28 0.27 0.23 0.26 0.25 0.22 0.21 0.20 0.18 0.17 0.14 0.11 0.11 0.13 0.27 0.30 0.42 0.52 0.62 0.72 0.82 0.90 1.00 1.06 1.13 1.15 1.19 1.26 1.19 1.24 1.32 1.33 1.34 1.40 1.38 1.20 1.12 1.13 1.14 1.18 1.31 1.36 1.40 1.43
0.31 0.28 0.22 0.22 0.25 0.32 0.28 0.23 0.21 0.15 0.14 0.15 0.13 0.10 0.21 0.28 0.38 0.49 0.59 0.73 0.82 0.92 0.99 1.08 1.11 1.13 1.17 1.25 1.24 1.17 1.29 1.35 1.36 1.38 1.42 1.28 1.14 1.15 1.16 1.08 1.21 1.44 1.43 1.43
0.39 0.26 0.21 0.22 0.23 0.28 0.28 0.27 0.24 0.21 0.18 0.14 0.12 0.12 0.19 0.21 0.31 0.48 0.65 0.78 0.89 0.97 1.02 1.04 1.07 1.08 1.14 1.19 1.24 1.21 1.21 1.30 1.40 1.41 1.38 1.37 1.18 1.09 1.11 1.13 1.18 1.30 1.38 1.41
0.42 0.31 0.25 0.19 0.22 0.23 0.25 0.27 0.28 0.23 0.18 0.16 0.13 0.16 0.18 0.21 0.29 0.44 0.50 0.68 0.74 0.91 0.94 0.95 1.04 1.13 1.15 1.21 1.21 1.28 1.22 1.31 1.36 1.41 1.34 1.28 1.24 1.05 1.06 1.16 1.21 1.24 1.27 1.27
0.44 0.29 0.30 0.28 0.29 0.29 0.24 0.26 0.28 0.24 0.22 0.18 0.17 0.17 0.18 0.18 0.26 0.37 0.56 0.58 0.73 0.77 0.87 0.89 0.99 1.06 1.14 1.20 1.22 1.32 1.35 1.43 1.35 1.35 1.34 1.23 1.25 1.08 1.11 1.18 1.20 1.24 1.25 1.26
0.50 0.33 0.35 0.28 0.31 0.29 0.27 0.26 0.28 0.28 0.26 0.23 0.24 0.23 0.27 0.23 0.23 0.32 0.42 0.71 0.70 0.78 0.80 0.80 0.88 0.94 1.01 1.15 1.23 1.31 1.32 1.30 1.40 1.41 1.31 1.34 1.27 1.18 1.07 1.16 1.19 1.22 1.22 1.24
0.48 0.41 0.35 0.26 0.33 0.32 0.29 0.24 0.27 0.30 0.32 0.28 0.25 0.28 0.31 0.27 0.25 0.29 0.38 0.52 0.72 0.70 0.70 0.75 0.84 0.91 1.02 1.06 1.19 1.24 1.29 1.36 1.36 1.33 1.38 1.40 1.33 1.22 1.13 1.13 1.21 1.20 1.19 1.25
0.48 0.43 0.41 0.31 0.35 0.28 0.25 0.33 0.31 0.31 0.33 0.35 0.33 0.34 0.34 0.33 0.32 0.30 0.38 0.47 0.75 0.76 0.71 0.73 0.79 0.91 0.99 1.10 1.17 1.23 1.29 1.28 1.29 1.23 1.32 1.44 1.45 1.31 1.26 1.19 1.13 1.20 1.28 1.27
0.54 0.47 0.39 0.33 0.37 0.36 0.33 0.34 0.32 0.30 0.30 0.38 0.37 0.39 0.37 0.39 0.40 0.38 0.39 0.38 0.43 0.67 0.73 0.71 0.80 0.94 1.08 1.08 1.15 1.24 1.23 1.26 1.23 1.20 1.24 1.35 1.46 1.43 1.42 1.24 1.19 1.23 1.31 1.37
0.51 0.48 0.42 0.40 0.34 0.32 0.34 0.44 0.44 0.47 0.32 0.49 0.42 0.43 0.43 0.41 0.34 0.41 0.49 0.43 0.41 0.43 0.54 0.66 0.68 0.83 0.92 1.05 1.09 1.08 1.06 1.19 1.17 1.18 1.19 1.27 1.42 1.48 1.47 1.51 1.42 1.39 1.41 1.46
0.51 0.51 0.41 0.42 0.38 0.41 0.54 0.50 0.50 0.36 0.40 0.58 0.56 0.53 0.51 0.42 0.45 0.53 0.60 0.56 0.53 0.50 0.48 0.48 0.58 0.70 0.81 0.98 1.07 1.08 1.09 1.07 1.11 1.18 1.16 1.20 1.33 1.43 1.54 1.63 1.70 1.63 1.57 1.66
0.49 0.52 0.46 0.52 0.48 0.38 0.72 0.58 0.41 0.50 0.71 0.69 0.73 0.71 0.66 0.67 0.68 0.69 0.68 0.66 0.62 0.58 0.60 0.60 0.55 0.54 0.68 0.88 0.97 0.95 1.02 1.03 1.08 1.16 1.26 1.22 1.25 1.38 1.55 1.64 1.73 1.80 1.78 1.76
0.49 0.56 0.49 0.59 0.63 0.83 0.87 0.97 0.94 0.83 0.75 0.82 0.82 0.86 0.83 0.79 0.79 0.81 0.82 0.82 0.84 0.85 0.80 0.77 0.64 0.64 0.68 0.66 0.88 0.88 0.94 1.04 1.08 1.19 1.24 1.31 1.42 1.42 1.53 1.60 1.69 1.76 1.86 1.87
0.61 0.69 0.63 0.64 0.77 0.95 0.94 1.12 1.21 1.04 0.97 0.98 0.97 1.02 0.98 0.91 0.98 0.96 0.96 0.96 0.95 1.02 1.04 1.07 0.94 0.83 0.74 0.77 0.75 0.77 0.83 0.95 1.08 1.12 1.24 1.48 1.56 1.54 1.62 1.69 1.73 1.83 1.91 1.94
0.64 0.66 0.67 0.72 0.83 0.97 1.03 1.05 1.15 1.17 1.19 1.13 1.09 1.08 1.08 1.09 1.11 1.12 1.10 1.11 1.09 1.07 1.12 1.18 1.13 1.14 1.11 1.12 1.05 1.00 1.08 1.19 1.32 1.35 1.37 1.53 1.74 1.73 1.63 1.62 1.68 1.93 2.05 2.15
0.75 0.68 0.62 0.70 0.93 1.00 1.06 1.13 1.09 0.99 1.07 1.18 1.19 1.11 1.20 1.19 1.13 1.20 1.16 1.22 1.21 1.20 1.18 1.17 1.24 1.32 1.43 1.47 1.52 1.56 1.66 1.45 1.47 1.58 1.77 1.69 1.75 1.70 1.94 1.68 1.66 1.92 1.95 2.06

GFSCGP_prec_pwat_033.txt.gz
Precipitable_Water
0.25 0.20 0.16 0.23 0.31 0.38 0.39 0.40 0.45 0.51 0.53 0.52 0.55 0.64 0.81 1.00 1.06 0.98 0.97 0.93 0.97 0.87 0.83 0.99 1.10 1.20 1.28 1.39 1.39 1.39 1.36 1.37 1.38 1.35 1.37 1.41 1.35 1.44 1.51 1.59 1.61 1.59 1.65 1.64
0.20 0.15 0.20 0.26 0.29 0.34 0.37 0.37 0.41 0.49 0.49 0.41 0.45 0.63 0.87 0.99 0.96 0.90 0.96 0.99 0.90 0.89 0.81 0.90 1.02 1.11 1.14 1.19 1.25 1.31 1.32 1.34 1.31 1.34 1.41 1.43 1.42 1.39 1.44 1.52 1.56 1.57 1.63 1.66
0.16 0.17 0.22 0.20 0.22 0.25 0.31 0.33 0.40 0.44 0.45 0.43 0.50 0.53 0.82 0.99 1.04 1.05 1.04 1.01 1.00 0.91 0.79 0.71 0.84 0.97 1.03 1.04 1.07 1.13 1.19 1.26 1.31 1.30 1.37 1.39 1.43 1.38 1.27 1.27 1.37 1.51 1.53 1.53
0.19 0.22 0.18 0.17 0.16 0.21 0.20 0.33 0.40 0.43 0.40 0.32 0.51 0.42 0.63 0.84 0.92 0.94 0.97 1.00 1.05 1.00 0.92 0.84 0.82 0.76 0.85 0.93 1.07 1.13 1.18 1.21 1.29 1.31 1.24 1.17 1.10 1.08 1.13 1.19 1.31 1.38 1.46 1.47
0.16 0.15 0.17 0.15 0.14 0.19 0.16 0.30 0.38 0.41 0.38 0.35 0.36 0.42 0.58 0.74 0.76 0.78 0.83 0.91 1.00 1.09 0.96 0.87 0.84 0.88 0.85 0.88 0.96 1.06 1.13 1.22 1.27 1.27 1.23 1.18 1.13 1.15 1.24 1.18 1.26 1.30 1.38 1.40
0.21 0.23 0.18 0.17 0.19 0.19 0.19 0.22 0.30 0.39 0.36 0.27 0.34 0.34 0.39 0.62 0.64 0.69 0.80 0.89 0.95 1.05 1.05 0.94 0.86 0.97 1.08 1.16 1.02 1.04 1.09 1.15 1.23 1.23 1.21 1.17 1.12 1.11 1.11 1.11 1.17 1.23 1.36 1.29
0.25 0.23 0.27 0.27 0.20 0.23 0.20 0.16 0.17 0.22 0.26 0.21 0.33 0.34 0.32 0.52 0.69 0.71 0.73 0.82 0.93 0.99 1.10 1.01 0.84 0.93 1.05 1.16 1.18 1.14 1.14 1.14 1.25 1.24 1.21 1.18 1.17 1.16 1.08 1.12 1.09 1.21 1.14 1.18
0.22 0.19 0.25 0.27 0.24 0.19 0.20 0.17 0.12 0.11 0.17 0.21 0.30 0.24 0.26 0.47 0.60 0.76 0.79 0.82 0.90 0.95 1.01 1.07 1.01 0.96 1.01 1.09 1.18 1.19 1.14 1.16 1.31 1.34 1.24 1.22 1.20 1.17 1.15 1.15 1.12 1.17 1.09 1.16
0.25 0.23 0.32 0.29 0.26 0.24 0.20 0.17 0.19 0.13 0.17 0.18 0.22 0.25 0.33 0.43 0.51 0.60 0.68 0.83 0.86 0.95 1.02 1.07 1.08 1.11 1.12 1.15 1.16 1.19 1.18 1.22 1.30 1.36 1.36 1.25 1.21 1.19 1.17 1.14 1.18 1.15 1.16 1.26
0.30 0.22 0.29 0.30 0.31 0.27 0.22 0.23 0.16 0.16 0.10 0.09 0.13 0.17 0.21 0.31 0.41 0.52 0.59 0.67 0.79 0.89 0.98 1.04 1.14 1.16 1.24 1.21 1.18 1.29 1.32 1.24 1.25 1.31 1.36 1.30 1.21 1.21 1.22 1.22 1.10 1.07 1.14 1.30
0.37 0.28 0.24 0.29 0.26 0.21 0.21 0.19 0.20 0.18 0.14 0.10 0.09 0.10 0.19 0.27 0.37 0.46 0.53 0.61 0.70 0.79 0.87 0.98 1.12 1.20 1.25 1.26 1.24 1.24 1.29 1.29 1.29 1.31 1.37 1.37 1.23 1.21 1.25 1.20 1.08 1.08 1.21 1.33
0.40 0.32 0.24 0.25 0.28 0.29 0.26 0.20 0.20 0.16 0.13 0.13 0.12 0.10 0.19 0.18 0.27 0.38 0.47 0.55 0.58 0.68 0.82 0.94 1.09 1.18 1.23 1.23 1.29 1.28 1.27 1.28 1.30 1.31 1.31 1.35 1.31 1.20 1.19 1.18 1.13 1.19 1.23 1.34
0.41 0.30 0.21 0.21 0.25 0.28 0.26 0.26 0.22 0.20 0.18 0.14 0.11 0.12 0.18 0.18 0.21 0.28 0.39 0.48 0.54 0.67 0.81 0.90 1.04 1.10 1.15 1.20 1.27 1.30 1.31 1.31 1.35 1.37 1.32 1.35 1.38 1.21 1.08 1.12 1.16 1.17 1.24 1.32
0.46 0.34 0.27 0.19 0.21 0.26 0.23 0.24 0.25 0.21 0.16 0.15 0.14 0.16 0.18 0.19 0.18 0.18 0.30 0.41 0.49 0.59 0.79 0.88 0.98 1.06 1.08 1.12 1.18 1.24 1.26 1.31 1.40 1.39 1.34 1.28 1.33 1.30 1.07 1.07 1.13 1.13 1.21 1.30
0.45 0.32 0.32 0.32 0.31 0.30 0.28 0.25 0.24 0.21 0.20 0.17 0.18 0.17 0.19 0.20 0.21 0.24 0.25 0.35 0.49 0.59 0.68 0.84 0.96 1.04 1.03 1.10 1.18 1.23 1.28 1.32 1.35 1.36 1.35 1.28 1.34 1.35 1.22 1.07 1.10 1.17 1.23 1.25
0.45 0.34 0.37 0.30 0.31 0.29 0.26 0.27 0.24 0.22 0.23 0.22 0.22 0.20 0.23 0.25 0.24 0.21 0.21 0.27 0.39 0.49 0.65 0.75 0.86 0.93 1.01 1.05 1.13 1.22 1.28 1.36 1.45 1.40 1.27 1.32 1.36 1.34 1.28 1.12 1.12 1.17 1.22 1.27
0.39 0.37 0.36 0.27 0.32 0.31 0.24 0.23 0.25 0.25 0.27 0.26 0.21 0.23 0.27 0.25 0.28 0.27 0.24 0.24 0.32 0.40 0.56 0.72 0.81 0.86 0.93 0.98 1.10 1.11 1.18 1.38 1.47 1.48 1.37 1.36 1.38 1.33 1.29 1.26 1.15 1.15 1.17 1.24
0.39 0.38 0.39 0.32 0.33 0.22 0.23 0.32 0.32 0.28 0.28 0.30 0.30 0.30 0.30 0.31 0.32 0.32 0.29 0.24 0.31 0.41 0.57 0.70 0.80 0.81 0.86 0.87 0.97 1.09 1.19 1.33 1.40 1.41 1.41 1.44 1.39 1.32 1.36 1.32 1.17 1.11 1.18 1.18
0.42 0.40 0.36 0.33 0.30 0.30 0.28 0.35 0.33 0.31 0.28 0.33 0.31 0.33 0.34 0.34 0.36 0.33 0.37 0.33 0.35 0.43 0.57 0.69 0.81 0.85 0.84 0.84 0.91 1.03 1.12 1.20 1.36 1.44 1.44 1.47 1.46 1.38 1.43 1.35 1.26 1.24 1.22 1.21
0.35 0.38 0.39 0.38 0.30 0.23 0.33 0.48 0.58 0.47 0.27 0.34 0.33 0.34 0.37 0.37 0.29 0.31 0.41 0.38 0.35 0.39 0.48 0.76 0.87 0.82 0.81 0.91 0.98 1.02 1.08 1.21 1.27 1.39 1.47 1.48 1.49 1.46 1.44 1.47 1.45 1.37 1.32 1.22
0.31 0.37 0.39 0.41 0.36 0.33 0.44 0.59 0.71 0.36 0.27 0.39 0.39 0.36 0.39 0.36 0.36 0.42 0.51 0.48 0.47 0.44 0.45 0.59 0.75 0.77 0.80 0.92 0.99 0.96 1.04 1.11 1.14 1.39 1.45 1.47 1.45 1.43 1.41 1.49 1.65 1.63 1.56 1.48
0.33 0.37 0.41 0.43 0.40 0.30 0.64 0.71 0.63 0.73 0.68 0.63 0.49 0.44 0.41 0.47 0.51 0.53 0.55 0.52 0.52 0.46 0.50 0.52 0.51 0.59 0.73 0.86 0.90 0.89 0.90 0.96 1.09 1.10 1.19 1.30 1.35 1.41 1.46 1.46 1.53 1.70 1.71 1.68
0.31 0.49 0.44 0.50 0.47 0.58 0.79 0.85 0.98 1.02 0.88 0.81 0.57 0.61 0.54 0.57 0.63 0.65 0.65 0.67 0.68 0.69 0.70 0.72 0.62 0.61 0.69 0.66 0.78 0.78 0.83 0.94 1.01 1.09 1.13 1.17 1.27 1.37 1.42 1.42 1.41 1.53 1.60 1.62
0.41 0.53 0.43 0.51 0.63 0.67 0.79 1.00 1.11 1.12 1.04 0.96 0.84 0.84 0.77 0.70 0.78 0.79 0.82 0.84 0.85 0.91 0.88 0.92 0.87 0.81 0.82 0.95 0.90 0.88 0.94 0.98 1.05 1.06 1.11 1.17 1.17 1.26 1.42 1.48 1.53 1.55 1.64 1.71
0.49 0.61 0.46 0.52 0.62 0.69 0.78 1.02 1.14 1.17 1.18 1.05 0.98 0.93 0.94 0.95 0.93 0.96 0.99 1.02 1.02 1.03 1.08 1.11 1.08 1.07 1.07 1.15 1.12 1.16 1.14 1.06 0.98 1.06 1.10 1.18 1.30 1.42 1.49 1.53 1.57 1.72 1.72 1.83
0.59 0.60 0.48 0.44 0.68 0.74 0.78 1.10 1.22 1.22 1.19 1.18 1.11 1.07 1.15 1.15 1.12 1.16 1.11 1.16 1.16 1.12 1.14 1.10 1.09 1.10 1.14 1.20 1.24 1.32 1.39 1.38 1.30 1.24 1.27 1.31 1.34 1.40 1.43 1.51 1.66 1.98 2.02 2.04

GFSCGP_prec_pwat_036.txt.gz
Precipitable_Water
0.26 0.20 0.14 0.22 0.27 0.32 0.38 0.37 0.44 0.52 0.60 0.55 0.53 0.53 0.65 0.87 0.95 0.97 1.01 1.03 0.99 0.97 0.87 1.00 1.12 1.25 1.30 1.35 1.37 1.35 1.26 1.26 1.24 1.21 1.26 1.32 1.31 1.45 1.52 1.58 1.59 1.61 1.61 1.67
0.21 0.14 0.19 0.24 0.27 0.28 0.32 0.36 0.36 0.47 0.53 0.49 0.47 0.45 0.68 0.82 0.85 0.93 1.02 1.06 1.00 0.94 0.85 0.92 1.03 1.17 1.20 1.20 1.24 1.30 1.29 1.28 1.27 1.32 1.35 1.40 1.39 1.38 1.47 1.53 1.56 1.60 1.60 1.58
0.15 0.17 0.23 0.21 0.21 0.21 0.26 0.29 0.36 0.39 0.48 0.49 0.49 0.42 0.54 0.85 0.93 1.02 1.05 1.06 1.10 1.04 0.90 0.75 0.86 0.97 1.07 1.11 1.15 1.19 1.21 1.23 1.29 1.36 1.41 1.41 1.45 1.42 1.38 1.41 1.43 1.48 1.51 1.51
0.21 0.23 0.20 0.18 0.17 0.20 0.17 0.29 0.35 0.39 0.39 0.36 0.50 0.30 0.46 0.72 0.82 0.91 0.97 0.96 0.99 1.06 1.05 0.95 0.82 0.84 0.91 0.98 1.13 1.19 1.24 1.24 1.27 1.38 1.32 1.24 1.16 1.12 1.23 1.27 1.33 1.35 1.43 1.46
0.19 0.19 0.19 0.16 0.15 0.20 0.17 0.25 0.30 0.36 0.36 0.37 0.38 0.34 0.35 0.63 0.73 0.81 0.90 0.91 0.95 1.04 1.04 0.98 0.90 0.86 0.83 0.92 0.98 1.06 1.15 1.21 1.25 1.27 1.28 1.21 1.14 1.17 1.21 1.31 1.25 1.22 1.34 1.44
0.23 0.26 0.23 0.19 0.20 0.20 0.20 0.20 0.23 0.28 0.33 0.27 0.34 0.32 0.28 0.42 0.59 0.75 0.85 0.89 0.91 1.02 1.05 1.00 0.97 0.96 0.99 1.01 0.96 1.01 1.05 1.08 1.19 1.24 1.25 1.21 1.16 1.14 1.14 1.16 1.18 1.13 1.28 1.32
0.25 0.23 0.24 0.22 0.19 0.20 0.20 0.17 0.12 0.14 0.18 0.18 0.32 0.31 0.28 0.40 0.53 0.65 0.74 0.83 0.91 1.01 1.06 1.04 0.94 0.87 0.96 1.02 1.05 0.93 0.99 1.03 1.14 1.19 1.22 1.20 1.19 1.20 1.14 1.14 1.11 1.07 1.16 1.17
0.21 0.19 0.24 0.25 0.18 0.16 0.17 0.16 0.12 0.08 0.10 0.17 0.29 0.23 0.26 0.41 0.53 0.67 0.76 0.83 0.91 0.95 1.02 1.08 1.02 0.92 0.91 1.02 1.14 1.20 1.10 0.98 1.06 1.13 1.17 1.24 1.26 1.23 1.21 1.21 1.16 1.11 1.11 1.14
0.24 0.22 0.31 0.28 0.27 0.22 0.18 0.16 0.17 0.13 0.16 0.14 0.20 0.24 0.33 0.39 0.46 0.58 0.64 0.69 0.74 0.85 0.96 1.02 1.09 1.05 1.02 1.03 1.15 1.19 1.20 1.17 1.15 1.16 1.22 1.30 1.33 1.27 1.21 1.23 1.25 1.16 1.16 1.16
0.31 0.23 0.29 0.30 0.32 0.30 0.22 0.22 0.16 0.15 0.10 0.09 0.12 0.15 0.19 0.27 0.36 0.50 0.59 0.63 0.69 0.77 0.88 1.02 1.08 1.14 1.13 1.14 1.15 1.26 1.26 1.24 1.24 1.24 1.29 1.33 1.37 1.35 1.28 1.25 1.21 1.18 1.18 1.13
0.38 0.30 0.26 0.32 0.27 0.24 0.24 0.20 0.20 0.19 0.14 0.09 0.08 0.09 0.17 0.21 0.28 0.37 0.51 0.62 0.65 0.70 0.79 0.88 1.01 1.11 1.19 1.25 1.22 1.22 1.23 1.26 1.27 1.31 1.31 1.34 1.36 1.40 1.35 1.25 1.21 1.20 1.18 1.16
0.46 0.36 0.27 0.28 0.33 0.34 0.30 0.23 0.21 0.16 0.13 0.14 0.12 0.10 0.18 0.16 0.18 0.29 0.41 0.54 0.65 0.65 0.70 0.81 0.92 1.03 1.18 1.24 1.27 1.21 1.23 1.28 1.26 1.33 1.34 1.30 1.37 1.40 1.35 1.20 1.21 1.23 1.16 1.16
0.44 0.36 0.26 0.27 0.31 0.32 0.29 0.28 0.24 0.21 0.19 0.14 0.12 0.12 0.18 0.18 0.18 0.18 0.28 0.47 0.58 0.62 0.64 0.74 0.81 0.87 1.03 1.19 1.29 1.28 1.32 1.25 1.28 1.34 1.36 1.33 1.31 1.35 1.35 1.24 1.17 1.19 1.17 1.11
0.47 0.38 0.32 0.25 0.29 0.34 0.27 0.27 0.28 0.23 0.17 0.16 0.15 0.15 0.18 0.18 0.17 0.17 0.19 0.25 0.37 0.46 0.51 0.58 0.69 0.84 0.93 1.08 1.19 1.25 1.33 1.37 1.42 1.37 1.35 1.32 1.30 1.30 1.34 1.29 1.17 1.13 1.16 1.18
0.40 0.32 0.35 0.36 0.36 0.35 0.32 0.29 0.27 0.25 0.24 0.18 0.18 0.17 0.19 0.21 0.20 0.21 0.21 0.20 0.26 0.39 0.44 0.51 0.60 0.80 0.88 1.00 1.12 1.20 1.23 1.34 1.42 1.38 1.36 1.30 1.38 1.43 1.38 1.33 1.22 1.08 1.12 1.18
0.42 0.31 0.34 0.30 0.34 0.34 0.29 0.30 0.28 0.26 0.26 0.24 0.23 0.21 0.24 0.24 0.24 0.23 0.22 0.23 0.23 0.31 0.41 0.48 0.60 0.78 0.89 0.97 1.07 1.14 1.18 1.24 1.32 1.21 1.18 1.29 1.37 1.42 1.42 1.36 1.25 1.09 1.04 1.13
0.36 0.32 0.30 0.24 0.32 0.31 0.23 0.26 0.27 0.26 0.27 0.25 0.20 0.24 0.28 0.24 0.23 0.24 0.24 0.25 0.25 0.25 0.29 0.41 0.50 0.70 0.85 0.90 1.00 1.03 1.15 1.27 1.25 1.20 1.22 1.26 1.33 1.34 1.37 1.41 1.35 1.16 1.00 1.08
0.36 0.35 0.33 0.26 0.30 0.19 0.27 0.33 0.33 0.28 0.28 0.28 0.27 0.27 0.27 0.28 0.28 0.28 0.29 0.30 0.28 0.27 0.27 0.37 0.45 0.57 0.77 0.90 0.95 1.04 1.17 1.22 1.27 1.26 1.26 1.37 1.42 1.34 1.40 1.41 1.36 1.29 1.16 1.02
0.34 0.33 0.28 0.25 0.25 0.26 0.29 0.34 0.38 0.37 0.28 0.30 0.30 0.31 0.30 0.30 0.31 0.30 0.32 0.35 0.34 0.30 0.29 0.35 0.44 0.60 0.73 0.88 0.95 0.99 1.04 1.09 1.20 1.22 1.28 1.37 1.44 1.36 1.37 1.39 1.35 1.34 1.34 1.20
0.27 0.30 0.28 0.29 0.23 0.19 0.33 0.43 0.51 0.56 0.30 0.42 0.37 0.32 0.31 0.31 0.25 0.29 0.35 0.39 0.38 0.36 0.37 0.38 0.46 0.64 0.78 0.83 0.94 0.97 0.96 0.98 1.02 1.16 1.17 1.32 1.43 1.41 1.40 1.41 1.39 1.43 1.46 1.39
0.22 0.23 0.23 0.25 0.28 0.31 0.39 0.49 0.62 0.31 0.26 0.52 0.58 0.49 0.36 0.29 0.31 0.36 0.40 0.40 0.43 0.40 0.37 0.41 0.49 0.67 0.77 0.89 0.95 0.93 0.95 0.92 0.96 1.12 1.25 1.33 1.49 1.46 1.51 1.54 1.63 1.63 1.62 1.65
0.21 0.24 0.23 0.26 0.25 0.22 0.42 0.51 0.42 0.55 0.68 0.64 0.64 0.58 0.52 0.38 0.37 0.40 0.45 0.46 0.50 0.50 0.49 0.45 0.48 0.59 0.92 0.97 0.93 0.86 0.89 0.98 1.15 1.23 1.31 1.37 1.47 1.53 1.60 1.52 1.68 1.79 1.59 1.52
0.23 0.26 0.27 0.29 0.25 0.38 0.42 0.43 0.61 0.75 0.78 0.78 0.70 0.65 0.62 0.48 0.41 0.44 0.50 0.60 0.69 0.71 0.67 0.65 0.59 0.66 0.78 0.85 0.90 0.86 0.99 1.12 1.17 1.20 1.23 1.31 1.40 1.47 1.71 1.60 1.57 1.55 1.60 1.67
0.38 0.44 0.35 0.39 0.37 0.38 0.48 0.68 0.71 0.81 0.83 0.94 0.91 0.81 0.71 0.57 0.59 0.60 0.70 0.81 0.86 0.90 0.84 0.86 0.79 0.78 0.80 0.92 0.90 0.92 0.98 1.02 1.01 1.02 1.10 1.22 1.30 1.41 1.56 1.64 1.66 1.69 1.72 1.72
0.39 0.41 0.32 0.41 0.47 0.57 0.57 0.66 0.74 0.83 0.98 1.07 1.09 0.98 0.88 0.77 0.82 0.84 0.87 0.96 1.01 1.03 1.04 1.05 0.99 1.00 1.01 1.08 1.08 1.14 1.16 1.12 0.99 0.98 1.00 1.08 1.23 1.34 1.43 1.54 1.63 1.73 1.75 1.81
0.47 0.39 0.35 0.26 0.49 0.55 0.62 0.66 0.78 0.81 1.13 1.21 1.19 1.07 1.12 1.03 0.98 1.03 0.99 1.06 1.07 1.05 1.10 1.07 1.08 1.08 1.09 1.13 1.15 1.19 1.25 1.25 1.19 1.14 1.17 1.21 1.23 1.26 1.36 1.45 1.45 1.59 1.69 1.81